SB KEPS @ AMSAT $ORB09057.N 2Line Orbital Elements 09057.AMSAT
HR AMSAT ORBITAL ELEMENTS FOR AMATEUR SATELLITES IN NASA FORMAT FROM WA5QGD FORT WORTH,TX February 26, 2009 Send Subscribe/unsubscribe to KEPS at http://www.amsat.org/mailman/listinfo/keps BID: ORB09057.N
DECODE 2-LINE ELSETS WITH THE FOLLOWING KEY: 1 AAAAAU 00 0 0 BBBBB.BBBBBBBB .CCCCCCCC 00000-0 00000-0 0 DDDZ 2 AAAAA EEE.EEEE FFF.FFFF GGGGGGG HHH.HHHH III.IIII JJ.JJJJJJJJKKKKKZ KEY: A-CATALOGNUM B-EPOCHTIME C-DECAY D-ELSETNUM E-INCLINATION F-RAAN G-ECCENTRICITY H-ARGPERIGEE I-MNANOM J-MNMOTION K-ORBITNUM Z-CHECKSUM
TO ALL RADIO AMATEURS BT
AO-07 1 07530U 74089B 09056.59925080 -.00000027 00000-0 10000-3 0 04147 2 07530 101.4399 085.3285 0012028 126.6023 233.6153 12.53575245568739 AO-10 1 14129U 83058B 09057.52070933 .00000000 00000-0 10000-3 0 6262 2 14129 025.9880 169.5367 5974274 201.3714 116.2490 02.05867129193336 UO-11 1 14781U 84021B 09056.57071941 .00000229 00000-0 37748-4 0 8962 2 14781 098.1226 099.9433 0008684 343.9843 016.1078 14.79697391341320 RS-15 1 23439U 94085A 09057.55877997 -.00000039 00000-0 10000-3 0 1837 2 23439 064.8141 083.7135 0146104 073.0617 288.6265 11.27553111583644 FO-29 1 24278U 96046B 09056.85180157 .00000051 00000-0 91132-4 0 9809 2 24278 098.5713 305.7569 0349793 278.8664 077.3029 13.52942662618697 SO-33 1 25509U 98061B 09056.78063048 .00000112 00000-0 11825-4 0 03967 2 25509 031.4324 322.4443 0354175 084.4541 279.6369 14.28242841539895 AO-40 1 26609U 00072B 09054.87860206 -.00000186 00000-0 10000-3 0 1966 2 26609 008.7844 031.3709 7951438 178.6236 187.9692 01.25585141 38206 RS-22 1 27939U 03042A 09057.69782248 .00000070 00000-0 22345-4 0 7261 2 27939 097.9632 296.4853 0014571 119.2749 240.9930 14.63296851289412 VO-52 1 28650U 05017B 09056.68079578 .00000305 00000-0 45158-4 0 01643 2 28650 097.7561 121.8815 0027828 035.7510 324.5598 14.81557123206137 PO-63 1 29712U 07001D 09057.71733473 .00000418 00000-0 61366-4 0 2683 2 29712 097.8430 116.7042 0013059 275.7881 084.1832 14.80452886115123 AO-16 1 20439U 90005D 09056.46367443 .00000004 00000-0 16881-4 0 05447 2 20439 098.2647 030.0262 0011399 138.8009 221.4032 14.31816837997169 LO-19 1 20442U 90005G 09056.46912327 -.00000015 00000-0 96491-5 0 04659 2 20442 098.2289 037.7172 0012476 136.3994 223.8190 14.32053438997322 AO-27 1 22825U 93061C 09057.39578790 -.00000021 00000-0 83487-5 0 1864 2 22825 098.4227 014.3841 0007651 227.8694 132.1857 14.29259235804080 IO-26 1 22826U 93061D 09056.84550312 .00000008 00000-0 19667-4 0 09066 2 22826 098.4152 014.6494 0008158 225.9663 134.0847 14.29510346804109 GO-32 1 25397U 98043D 09056.84780380 -.00000109 00000-0 -30194-4 0 8305 2 25397 098.3367 085.0975 0000812 169.3910 190.7269 14.23154937552294 NO-44 1 26931U 01043C 09056.83374293 -.00000091 00000-0 -32099-5 0 1079 2 26931 067.0544 351.2181 0005391 262.7269 097.3234 14.29547427386664 SO-50 1 27607U 02058C 09056.31795374 -.00000059 00000-0 13023-4 0 08241 2 27607 064.5592 004.8523 0078165 229.7387 129.6863 14.71416093332214 CO-55 1 27844U 03031E 09057.62704266 .00000062 00000-0 49081-4 0 5200 2 27844 098.7153 068.3429 0010579 100.4288 259.8086 14.20624404293567 CO-57 1 27848U 03031J 09057.58923671 .00000021 00000-0 30279-4 0 4676 2 27848 098.7173 067.3697 0010547 105.2570 254.9758 14.20428101293525 AO-51 1 28375U 04025K 09056.55996147 .00000004 00000-0 13545-4 0 03273 2 28375 098.0564 072.6511 0084710 103.4566 257.6086 14.40633953244884 CO-56 1 28941U 06005C 09057.54442526 .00059419 36292-5 29568-3 0 8535 2 28941 098.1262 212.3538 0116630 187.5001 172.4437 15.72565119169799 CP3 1 31128U 07012M 09057.68892488 -.00000048 00000-0 00000 0 0 5661 2 31128 098.0022 115.8973 0101867 267.5100 091.4435 14.52020759 98868 CP4 1 31132U 07012Q 09057.64884494 .00000097 00000-0 31969-4 0 5442 2 31132 098.0084 119.3027 0084642 257.6589 101.5114 14.55186028 98954 CO-65 1 32785U 08021C 09057.22175294 .00000170 00000-0 28501-4 0 3003 2 32785 097.9609 122.0406 0015751 035.4392 324.7841 14.81452238 45014 NOAA-10 1 16969U 86073A 09056.63126659 -.00000043 00000-0 44148-6 0 05163 2 16969 098.7033 083.8285 0012564 158.9965 201.1730 14.27380423167594 NOAA-11 1 19531U 88089A 09056.82925301 -.00000236 00000-0 -99685-4 0 05262 2 19531 098.7854 148.5063 0012338 067.2653 292.9823 14.14888388053775 NOAA-12 1 21263U 91032A 09056.93147098 .00000007 00000-0 21993-4 0 00378 2 21263 098.7734 064.9335 0013204 106.6918 253.5713 14.25567671924549 MET-3/5 1 21655U 91056A 09056.93047565 .00000051 00000-0 10000-3 0 06468 2 21655 082.5522 285.1082 0014595 096.6829 263.5954 13.17018347842985 MET-2/21 1 22782U 93055A 09057.68321860 .00000039 00000-0 21918-4 0 3898 2 22782 082.5439 269.6725 0021202 298.6670 061.2377 13.83633749782321 OKEAN-4 1 23317U 94066A 09057.82652043 .00000199 00000-0 21687-4 0 8392 2 23317 082.5353 077.4772 0022795 012.8556 347.3253 14.82677202776017 NOAA-14 1 23455U 94089A 09056.91601188 .00000021 00000-0 34453-4 0 05265 2 23455 098.9185 134.9539 0010111 142.9311 217.2568 14.13757570730203 NOAA-15 1 25338U 98030A 09056.88304356 -.00000066 00000-0 -99423-5 0 08308 2 25338 098.5774 048.5714 0011158 027.3064 332.8686 14.24746568560925 RESURS 1 25394U 98043A 09056.94506355 -.00000033 00000-0 34514-5 0 01524 2 25394 098.3531 094.8830 0001448 140.8118 219.3164 14.24180069552560 FENGYUN1 1 25730U 99025A 09057.84751652 .00000149 00000-0 11282-3 0 6955 2 25730 098.7459 031.3513 0022147 167.8374 192.3336 14.07927049504794 OKEAN-0 1 25860U 99039A 09056.80945409 .00000023 00000-0 10751-4 0 6091 2 25860 097.7754 042.4790 0001216 107.3717 252.7622 14.73560090516748 NOAA-16 1 26536U 00055A 09056.86932251 -.00000187 00000-0 -75664-4 0 03059 2 26536 099.1762 057.8498 0009870 230.7203 129.3079 14.12510246434581 NOAA-17 1 27453U 02032A 09056.91653095 .00000198 00000-0 10455-3 0 03143 2 27453 098.4999 119.7521 0012774 089.3416 270.9221 14.24043997346918 NOAA-18 1 28654U 05018A 09056.87821335 .00000146 00000-0 10553-3 0 08005 2 28654 098.8978 001.0406 0013881 320.7895 039.2252 14.11237447194250 NOAA-19 1 33591U 09005A 09057.18890263 .00000392 00000-0 24207-3 0 200 2 33591 098.7347 005.9030 0013896 194.9605 165.1161 14.10939085 2787 HUBBLE 1 20580U 90037B 09056.50813846 .00000269 00000-0 79212-5 0 03413 2 20580 028.4693 110.9055 0003925 194.9821 165.0650 15.00457701833066 PO-34 1 25520U 98064B 09056.96622559 .00000337 00000-0 67968-5 0 01946 2 25520 028.4609 279.6247 0005534 170.3092 189.7610 15.17300787571746 ISS 1 25544U 98067A 09057.73234905 .00011144 00000-0 90973-4 0 3508 2 25544 051.6401 152.6768 0009530 067.2818 069.5881 15.71132499588575 CO-58 1 28895U 05043F 09056.67799222 .00000118 00000-0 34250-4 0 02427 2 28895 098.0733 310.3320 0017598 340.2327 019.8202 14.59744548177465 FALCON 1 30776U 07006E 09056.38381124 .00000274 00000-0 22932-4 0 05223 2 30776 035.4337 057.7060 0001557 008.1132 351.9609 15.03175360108269 MAST 1 31126U 07012K 09056.65010985 -.00000000 00000-0 10869-4 0 5352 2 31126 098.0038 116.4875 0093669 266.0522 092.9957 14.53479327 98835 CAPE1 1 31130U 07012P 09057.68095165 -.00000004 00000-0 10255-4 0 5379 2 31130 098.0052 115.9030 0101695 267.5248 091.4300 14.52035911 98655 COMPASS 1 32787U 08021E 09057.20695782 .00000295 00000-0 44355-4 0 2903 2 32787 097.9566 121.9078 0016674 036.6157 323.6191 14.81553219 45015 AAUSAT2 1 32788U 08021F 09057.72419051 -.00000047 00000-0 86516-6 0 2918 2 32788 097.9567 122.4624 0016281 035.8007 324.4284 14.81671824 45092 DO-64 1 32789U 08021G 09057.74346119 .00000503 00000-0 70619-4 0 3018 2 32789 097.9612 122.5812 0016350 034.2287 325.9975 14.81623779 45093 CO-66 1 32791U 08021J 09057.37246540 .00000102 00000-0 19832-4 0 2831 2 32791 097.9592 122.1013 0016845 034.2909 325.9385 14.81392192 45000 RS-30 1 32953U 08025A 09056.79206119 .00000010 00000-0 00000-0 0 02413 2 32953 082.5065 325.8918 0020245 061.6356 298.6759 12.42999798034559 /EX
participants (1)
-
Ray Hoad